Wind_Speed
9 9 9 9 10 10 10 10 10 9 9 9 8 8 8 8 8 8 8 8 8 8 8 8 8 9 9 8 8 8 8 8 8 8 9 9 10 10 10 10 11 11 10
10 10 10 10 10 11 11 10 10 9 9 9 9 8 9 9 9 8 8 8 9 9 8 8 8 8 8 8 8 8 8 8 8 8 9 9 10 10 10 11 11 11 11
12 12 12 11 11 11 11 10 10 10 10 9 9 9 9 9 9 9 9 9 10 9 9 8 8 8 8 8 8 8 8 8 8 8 8 9 10 10 10 11 11 11 11
12 13 13 12 12 12 12 12 12 11 11 10 10 9 9 9 9 9 9 9 9 9 9 9 9 9 9 9 8 8 9 8 8 9 9 9 9 10 11 11 12 11 11
13 14 14 13 13 13 13 13 13 13 12 11 11 10 10 10 10 9 9 9 9 9 9 9 9 9 9 9 9 9 9 9 9 9 9 10 10 10 10 11 11 11 11
15 15 15 15 15 15 15 14 14 14 13 12 12 11 11 11 11 11 10 9 9 9 9 10 9 10 9 9 10 9 10 10 10 10 10 11 11 11 11 11 11 11 11
16 16 16 16 16 16 16 16 15 15 15 14 14 13 13 13 12 12 11 11 11 10 10 11 11 11 11 11 10 10 11 11 11 11 11 11 11 11 11 11 11 11 11
17 17 17 17 17 17 17 17 17 16 16 16 15 15 15 14 14 14 13 13 13 12 12 12 12 12 12 12 12 11 12 12 12 12 12 12 12 11 11 11 12 12 12
17 18 18 18 18 18 18 18 18 17 17 17 16 16 16 16 15 15 15 15 14 14 14 14 13 13 13 12 12 12 13 13 13 13 13 13 13 13 12 12 12 13 13
18 18 18 19 19 19 19 19 19 19 18 18 18 17 17 17 17 16 16 16 16 15 15 15 15 15 14 14 14 14 14 14 14 14 13 14 14 13 13 13 13 14 14
18 18 19 19 20 20 20 20 20 20 19 19 19 18 19 19 19 19 18 18 18 17 17 16 16 16 16 15 15 15 15 15 15 15 15 14 14 14 14 14 14 14 14
19 19 20 20 20 21 21 22 22 22 21 20 20 20 20 21 21 20 19 19 19 19 19 18 18 18 18 17 17 16 16 16 15 15 16 15 15 15 15 15 15 15 15
21 21 21 21 21 22 22 22 22 23 23 21 21 21 21 22 22 21 21 20 20 20 20 19 19 19 19 19 18 18 17 17 17 17 17 16 16 15 15 15 16 16 16
22 22 22 22 22 22 22 23 23 23 23 22 22 22 22 22 23 22 22 22 21 21 21 21 21 20 20 20 19 19 19 18 18 19 18 18 17 17 16 16 17 17 17
23 23 23 23 22 22 22 23 22 22 22 22 22 22 23 23 23 22 22 22 22 22 22 22 22 22 22 21 21 20 20 19 19 19 19 19 19 19 18 18 18 18 17
24 24 24 24 23 22 22 22 22 22 22 21 22 22 22 22 22 22 22 22 22 23 22 22 22 23 22 22 21 21 21 20 20 20 20 20 20 20 20 20 20 19 19
24 24 24 24 23 23 23 23 22 23 23 23 23 23 22 22 22 22 21 21 21 22 22 22 22 22 23 23 22 22 22 22 22 22 21 20 20 21 21 21 21 21 21
24 24 24 24 24 24 24 24 23 23 24 24 24 23 23 22 21 21 22 21 21 21 21 22 22 22 23 23 23 23 23 23 23 23 23 22 21 21 21 21 22 22 23
25 24 24 24 24 24 24 24 23 24 24 24 24 23 23 22 22 21 21 21 21 21 22 22 22 23 23 23 23 24 25 25 24 25 24 23 23 23 23 23 23 24 24
25 24 24 24 24 24 24 24 24 24 24 24 25 24 24 23 24 23 22 22 21 21 22 23 23 24 24 24 24 25 25 25 25 25 25 25 25 25 25 26 26 26 26
25 25 24 24 25 25 24 24 24 24 24 24 25 26 25 24 24 24 23 23 23 23 22 23 23 24 25 25 26 26 26 26 26 26 27 27 27 27 28 28 28 27 27
25 25 24 25 25 25 24 24 24 24 24 25 25 26 26 25 25 25 24 24 24 25 25 25 25 24 25 25 26 26 27 27 27 27 28 28 28 29 29 30 30 30 30
24 24 24 24 25 24 23 24 24 24 24 24 25 25 26 25 25 25 25 25 25 25 26 26 26 26 26 26 27 27 27 28 29 29 29 29 29 30 30 31 31 31 31
24 24 24 24 24 23 23 24 24 24 24 24 26 26 26 26 26 26 26 26 26 26 27 27 27 27 27 27 28 28 29 30 30 31 31 31 31 31 31 32 32 32 32
24 24 25 24 23 23 23 24 24 24 24 25 26 27 27 27 27 27 27 27 27 27 27 27 28 28 28 28 28 29 30 31 31 32 32 32 33 33 33 34 34 34 34
24 24 24 24 24 24 24 24 24 24 24 25 26 27 27 27 27 27 27 27 27 27 27 28 28 28 28 28 29 30 30 31 32 32 33 33 34 35 35 35 36 36 36
Wind_Direction
278 280 281 282 284 285 286 288 290 291 291 292 290 288 291 286 281 278 279 275 271 275 275 276 275 272 268 261 261 262 259 253 252 251 250 249 249 249 248 250 250 248 250
277 277 279 280 283 286 286 284 287 288 290 288 287 287 287 288 285 281 282 278 275 275 274 275 274 271 268 263 261 261 257 251 249 249 250 250 251 254 253 252 253 252 252
274 275 278 280 284 286 284 282 286 289 290 289 287 286 284 285 284 282 280 278 278 274 272 270 272 273 269 265 262 259 256 250 246 249 251 252 252 257 254 253 254 256 255
273 274 276 279 282 284 282 282 283 285 287 287 285 284 283 283 285 282 278 275 274 274 270 270 272 273 271 266 263 260 256 253 253 252 252 253 254 253 251 255 256 256 255
274 274 274 276 279 281 282 280 280 280 280 281 280 279 279 281 282 281 278 277 272 268 268 269 270 271 271 264 263 261 258 256 255 254 255 255 257 257 255 256 256 255 255
273 273 273 274 277 279 280 279 277 276 275 275 276 276 276 278 280 279 275 273 271 269 268 267 268 270 270 268 266 261 258 256 255 255 256 257 259 260 258 258 258 257 258
272 272 272 272 274 275 276 276 274 271 271 271 272 272 272 273 274 277 275 272 269 269 268 267 265 266 267 269 266 262 260 260 260 259 259 259 259 259 259 256 255 256 257
274 272 272 272 273 273 273 273 272 269 269 269 268 268 268 270 271 271 273 271 269 269 268 269 266 264 265 267 264 261 260 261 262 263 263 262 260 257 258 257 256 256 258
274 273 273 273 274 273 273 272 270 269 268 267 265 264 265 267 270 269 268 267 268 267 267 267 265 264 264 265 264 261 259 259 259 261 263 261 261 259 260 260 258 257 259
275 275 274 274 274 274 273 271 269 270 269 266 265 264 264 265 266 267 265 264 266 267 268 266 264 263 264 263 262 261 260 260 259 259 260 260 257 258 258 259 260 257 258
277 278 277 276 275 275 274 272 270 270 269 267 265 265 265 265 266 266 264 264 266 267 267 267 264 262 261 260 259 261 262 260 258 258 260 260 258 258 259 260 260 256 256
276 277 277 277 277 276 275 273 271 269 267 266 267 267 265 265 265 265 264 265 265 266 264 263 261 261 260 259 259 261 262 260 259 259 259 258 259 259 260 260 259 258 258
275 277 278 277 277 277 276 273 271 269 267 265 264 265 265 266 266 266 265 264 264 263 262 261 260 259 259 259 260 260 260 260 260 260 259 259 259 260 260 260 258 258 257
276 276 277 277 277 276 276 274 271 269 267 266 265 265 265 265 266 266 266 265 264 262 261 260 260 259 260 260 259 259 259 260 260 259 258 257 258 259 259 259 260 260 259
277 276 275 276 277 276 275 274 271 268 266 266 268 266 266 266 267 267 267 266 265 263 260 258 258 259 260 260 258 257 258 259 258 257 257 256 256 258 260 260 260 261 260
276 277 276 275 276 275 274 274 270 266 266 266 268 268 268 268 267 267 267 268 266 263 260 257 257 258 259 259 259 257 257 257 256 256 256 255 255 256 259 261 260 259 260
276 277 277 275 274 275 275 274 268 266 265 265 266 266 268 268 269 268 268 268 267 264 261 259 258 258 258 258 258 256 257 257 255 255 256 256 256 257 259 260 260 260 260
278 278 276 275 275 275 274 272 267 265 264 264 264 265 266 268 267 267 268 268 267 265 263 261 260 261 261 259 258 257 257 258 257 256 255 257 257 258 258 259 260 261 262
277 277 276 275 275 276 274 271 266 264 263 263 263 263 265 266 266 267 269 269 268 265 261 260 260 261 261 260 259 259 258 258 258 257 256 256 257 258 259 260 261 262 263
275 274 275 276 277 277 275 271 267 263 264 263 263 262 263 265 264 266 268 269 268 266 263 261 260 260 260 260 259 259 259 258 258 258 257 257 257 258 260 261 261 262 262
275 274 274 274 276 276 274 271 267 265 266 264 264 265 264 266 266 268 267 266 268 267 265 263 263 262 262 260 260 259 259 260 259 259 259 259 259 260 261 262 263 264 264
275 274 274 274 275 275 273 270 268 267 266 264 265 265 265 266 266 266 265 266 267 268 266 266 266 265 263 262 261 261 261 261 260 259 260 261 262 262 262 263 264 264 264
274 273 274 274 275 274 271 269 268 268 267 266 265 264 265 266 267 267 266 266 267 268 268 267 266 265 265 264 262 263 263 263 262 260 261 261 262 263 264 265 266 266 267
274 273 273 273 273 271 271 270 268 267 267 267 265 265 266 267 268 268 267 267 268 269 269 267 266 267 267 266 264 264 264 264 263 262 262 263 263 265 265 266 266 267 268
276 276 275 272 270 270 270 271 271 270 269 268 267 267 267 268 268 267 267 268 269 269 269 268 268 268 268 267 266 266 265 265 264 263 263 264 265 266 266 266 267 267 268
275 276 273 271 270 271 272 272 271 270 269 269 269 269 269 271 271 270 269 270 270 269 269 268 268 267 267 267 267 267 267 266 266 265 266 267 267 268 267 267 267 267 268
Height
5853 5852 5852 5851 5850 5850 5849 5848 5847 5846 5845 5844 5843 5842 5841 5840 5840 5839 5838 5837 5836 5836 5835 5835 5834 5834 5834 5834 5833 5833 5833 5833 5833 5833 5833 5833 5833 5833 5833 5833 5833 5833 5833
5851 5850 5850 5849 5848 5848 5846 5846 5845 5844 5843 5842 5841 5840 5839 5838 5837 5836 5836 5835 5834 5834 5833 5833 5832 5832 5832 5831 5831 5831 5831 5831 5831 5831 5831 5831 5832 5831 5831 5831 5831 5831 5831
5848 5848 5847 5846 5846 5845 5844 5843 5843 5842 5841 5840 5839 5838 5837 5836 5835 5834 5834 5833 5832 5832 5831 5831 5830 5830 5829 5829 5829 5829 5829 5829 5829 5829 5829 5829 5829 5829 5829 5829 5829 5829 5829
5845 5845 5844 5844 5843 5842 5841 5841 5840 5839 5838 5838 5837 5836 5835 5834 5833 5832 5831 5831 5830 5830 5829 5829 5828 5828 5827 5827 5827 5827 5827 5827 5827 5827 5827 5827 5827 5827 5827 5827 5826 5826 5826
5842 5841 5841 5840 5840 5839 5839 5838 5837 5837 5836 5835 5834 5834 5833 5832 5831 5830 5829 5829 5828 5828 5827 5827 5826 5826 5825 5825 5825 5824 5824 5824 5825 5825 5824 5824 5824 5824 5824 5824 5824 5824 5824
5838 5837 5837 5837 5836 5836 5835 5834 5834 5833 5833 5832 5832 5831 5830 5829 5829 5828 5827 5826 5826 5826 5825 5825 5824 5824 5823 5823 5822 5822 5822 5822 5822 5822 5822 5822 5821 5821 5821 5821 5821 5821 5821
5834 5833 5833 5833 5832 5831 5831 5831 5830 5829 5829 5828 5828 5828 5827 5826 5826 5825 5825 5824 5824 5823 5823 5822 5822 5821 5821 5820 5820 5820 5819 5819 5819 5819 5819 5819 5818 5818 5818 5818 5818 5818 5818
5829 5828 5828 5828 5827 5827 5826 5826 5825 5825 5825 5824 5824 5823 5823 5823 5822 5822 5821 5821 5820 5820 5819 5819 5819 5818 5818 5817 5817 5816 5816 5816 5816 5816 5815 5815 5815 5815 5815 5815 5815 5816 5816
5824 5823 5823 5822 5822 5822 5821 5821 5821 5820 5820 5819 5819 5819 5818 5818 5818 5817 5817 5817 5817 5816 5816 5816 5815 5815 5814 5814 5814 5813 5813 5813 5813 5812 5812 5812 5812 5812 5812 5812 5812 5813 5813
5819 5818 5817 5817 5816 5816 5816 5816 5815 5815 5814 5814 5814 5814 5813 5813 5813 5813 5813 5812 5812 5812 5812 5811 5811 5811 5811 5810 5810 5810 5810 5809 5809 5809 5809 5808 5808 5808 5808 5808 5808 5808 5809
5813 5812 5812 5811 5811 5810 5810 5810 5809 5809 5809 5809 5809 5808 5808 5808 5808 5807 5807 5807 5807 5807 5807 5807 5807 5806 5806 5806 5806 5806 5806 5805 5805 5805 5805 5805 5805 5805 5805 5805 5805 5805 5805
5807 5807 5806 5805 5805 5804 5804 5804 5803 5803 5803 5803 5803 5803 5802 5802 5802 5802 5801 5802 5802 5801 5801 5802 5802 5802 5802 5802 5802 5801 5801 5801 5801 5801 5801 5801 5801 5801 5801 5801 5801 5801 5801
5801 5800 5800 5799 5798 5798 5797 5797 5796 5796 5796 5796 5796 5796 5796 5796 5796 5795 5795 5796 5796 5795 5796 5796 5796 5796 5796 5796 5796 5796 5796 5796 5796 5796 5796 5796 5797 5797 5797 5797 5797 5797 5797
5795 5794 5793 5793 5792 5791 5791 5790 5789 5789 5789 5789 5789 5789 5789 5789 5789 5789 5789 5789 5789 5789 5790 5790 5790 5790 5790 5791 5791 5791 5791 5791 5791 5791 5791 5792 5792 5792 5792 5793 5793 5793 5793
5788 5787 5786 5786 5785 5784 5783 5783 5782 5782 5782 5782 5782 5783 5783 5782 5782 5782 5782 5782 5782 5783 5783 5783 5783 5784 5784 5784 5785 5785 5785 5785 5786 5786 5786 5786 5787 5787 5788 5788 5788 5788 5788
5780 5780 5779 5778 5778 5777 5776 5776 5775 5775 5775 5776 5776 5776 5776 5776 5776 5776 5775 5775 5775 5775 5776 5776 5777 5777 5777 5777 5778 5779 5779 5779 5780 5780 5780 5781 5781 5782 5782 5782 5782 5783 5783
5773 5772 5771 5771 5770 5769 5769 5768 5768 5768 5769 5769 5770 5770 5770 5770 5770 5770 5769 5769 5769 5768 5769 5769 5770 5770 5770 5771 5771 5772 5773 5773 5774 5774 5774 5775 5775 5775 5776 5776 5777 5777 5777
5765 5765 5764 5763 5763 5762 5761 5761 5761 5761 5762 5763 5763 5763 5763 5763 5763 5763 5763 5763 5762 5762 5762 5762 5763 5764 5764 5764 5765 5765 5766 5766 5767 5767 5768 5768 5769 5769 5770 5770 5770 5771 5771
5758 5757 5756 5756 5755 5754 5753 5753 5753 5754 5755 5756 5756 5756 5757 5757 5757 5757 5757 5756 5756 5755 5755 5756 5756 5757 5757 5757 5758 5758 5759 5759 5760 5760 5761 5761 5762 5763 5763 5763 5764 5764 5764
5750 5749 5749 5748 5747 5747 5746 5746 5746 5747 5747 5748 5749 5749 5750 5750 5750 5750 5750 5749 5749 5749 5749 5749 5749 5749 5750 5750 5750 5751 5751 5752 5753 5753 5754 5754 5755 5755 5755 5755 5756 5756 5756
5742 5741 5741 5740 5740 5739 5739 5738 5739 5739 5740 5740 5741 5742 5742 5742 5742 5742 5742 5742 5742 5742 5742 5741 5742 5742 5742 5742 5742 5743 5743 5744 5744 5745 5746 5746 5746 5747 5747 5747 5748 5748 5747
5734 5733 5733 5733 5732 5731 5731 5731 5732 5732 5732 5733 5734 5734 5734 5735 5735 5735 5735 5735 5734 5734 5734 5734 5734 5734 5734 5734 5734 5734 5735 5735 5736 5737 5737 5738 5738 5738 5739 5739 5739 5739 5738
5726 5726 5726 5725 5725 5724 5724 5724 5724 5724 5725 5725 5726 5726 5727 5727 5727 5727 5727 5727 5726 5726 5726 5726 5726 5726 5725 5725 5726 5726 5726 5727 5727 5728 5728 5729 5729 5729 5729 5729 5729 5729 5729
5718 5718 5718 5718 5717 5717 5716 5716 5717 5717 5717 5718 5718 5718 5719 5719 5719 5719 5719 5718 5718 5718 5717 5717 5717 5717 5717 5717 5717 5717 5717 5717 5718 5718 5719 5719 5719 5719 5720 5720 5719 5719 5719
5711 5710 5710 5710 5710 5710 5709 5709 5709 5709 5709 5710 5710 5710 5710 5710 5710 5710 5710 5710 5709 5709 5709 5709 5709 5708 5708 5708 5708 5708 5708 5708 5708 5708 5709 5709 5709 5709 5709 5709 5709 5708 5708
5703 5702 5702 5702 5702 5702 5702 5702 5702 5702 5702 5702 5701 5701 5701 5701 5701 5701 5701 5700 5700 5700 5699 5699 5699 5699 5699 5699 5699 5698 5698 5698 5698 5698 5698 5698 5698 5698 5698 5698 5697 5697 5696